This is the latest recevied weather packets stored in our database for station/object F4JUT-10. If no packets are shown the sender has not sent any weather packets the latest 10 day(s).
| Time | Temp. | Humidity | Pressure | Rain* | Wind** | Luminosity | Snow |
|---|---|---|---|---|---|---|---|
| 1777580268 | 15° C | 55% | 1023.7 hPa | - | - | - | - |
| 1777579368 | 15.56° C | 53% | 1023.7 hPa | - | - | - | - |
| 1777578468 | 16.11° C | 52% | 1023.5 hPa | - | - | - | - |
| 1777577568 | 16.11° C | 50% | 1023.4 hPa | - | - | - | - |
| 1777576668 | 16.67° C | 49% | 1023.1 hPa | - | - | - | - |
| 1777575768 | 17.22° C | 47% | 1023 hPa | - | - | - | - |
| 1777574868 | 18.33° C | 45% | 1022.8 hPa | - | - | - | - |
| 1777573967 | 18.89° C | 43% | 1022.5 hPa | - | - | - | - |
| 1777573067 | 20° C | 41% | 1022.4 hPa | - | - | - | - |
| 1777572167 | 20.56° C | 39% | 1022.2 hPa | - | - | - | - |
| 1777571267 | 21.11° C | 37% | 1021.9 hPa | - | - | - | - |
| 1777570367 | 21.67° C | 36% | 1021.7 hPa | - | - | - | - |
| 1777569467 | 22.22° C | 35% | 1021.6 hPa | - | - | - | - |
| 1777568567 | 22.78° C | 33% | 1021.5 hPa | - | - | - | - |
| 1777567667 | 23.33° C | 33% | 1021.5 hPa | - | - | - | - |
| 1777566767 | 23.33° C | 33% | 1021.3 hPa | - | - | - | - |
| 1777565867 | 23.89° C | 33% | 1021.4 hPa | - | - | - | - |
| 1777564966 | 24.44° C | 33% | 1021.2 hPa | - | - | - | - |
| 1777564066 | 24.44° C | 33% | 1021.2 hPa | - | - | - | - |
| 1777563166 | 25° C | 31% | 1021.1 hPa | - | - | - | - |
| 1777562266 | 25° C | 30% | 1020.9 hPa | - | - | - | - |
| 1777561366 | 26.11° C | 29% | 1020.7 hPa | - | - | - | - |
| 1777560466 | 27.22° C | 27% | 1020.8 hPa | - | - | - | - |
| 1777559566 | 27.78° C | 26% | 1020.7 hPa | - | - | - | - |
| 1777558666 | 28.33° C | 26% | 1020.7 hPa | - | - | - | - |
* Rain since midnight (hover to see other rain measurements)
** Current wind speed in m/s (hover to see current wind gust speed)